Location: Unspecified
(0.0000°N, 0.0000°E)
Time: 16:58:35
(UTC+00:00)

STARLINK-32002 - Visible Passes

Search period start: 14 December 2025 00:00
Search period end: 24 December 2025 00:00
Orbit: 474 x 476 km, 53.2° (Epoch: 13 December)

Date Brightness Start Highest point End Pass type
(mag) Time Alt. Az. Time Alt. Az. Time Alt. Az.
14 Dec 4.2 18:28:14 10° SW 18:31:48 46° NW 18:35:20 10° NNE visible
17 Dec 3.3 05:13:27 10° NNW 05:17:07 87° NE 05:20:49 10° SE visible
18 Dec 3.5 04:45:08 25° NNW 04:47:05 66° ENE 04:50:44 10° SE visible
19 Dec 3.9 04:16:49 49° NE 04:16:55 49° ENE 04:20:29 10° SE visible
20 Dec 5.6 03:48:20 23° ESE 03:48:20 23° ESE 03:50:04 10° SE visible
21 Dec 5.6 04:53:46 11° WSW 04:53:53 11° SW 04:54:52 10° SW visible
22 Dec 5.9 04:24:56 11° SSW 04:24:56 11° SSW 04:25:22 10° SSW visible
